This is the latest recevied weather packets stored in our database for station/object N8QQQ. If no packets are shown the sender has not sent any weather packets the latest 10 day(s).
| Time | Temp. | Humidity | Pressure | Rain* | Wind** | Luminosity | Snow |
|---|---|---|---|---|---|---|---|
| 1777753574 | 12.22° C | 30% | 1012.2 hPa | 0 mm | - | 176 W/m² | - |
| 1777753272 | 12.78° C | 29% | 1012.2 hPa | 0 mm | - | 218 W/m² | - |
| 1777752968 | 12.22° C | 30% | 1012.4 hPa | 0 mm | - | 271 W/m² | - |
| 1777752665 | 12.22° C | 29% | 1012.4 hPa | 0 mm | - | 247 W/m² | - |
| 1777752360 | 13.33° C | 28% | 1012.6 hPa | 0 mm | - | 414 W/m² | - |
| 1777752058 | 13.33° C | 28% | 1012.9 hPa | 0 mm | - | 363 W/m² | - |
| 1777751756 | 12.78° C | 29% | 1012.7 hPa | 0 mm | - | 431 W/m² | - |
| 1777751452 | 12.22° C | 28% | 1012.8 hPa | 0 mm | - | 250 W/m² | - |
| 1777750239 | 11.11° C | 30% | 1013.2 hPa | 0 mm | - | 79 W/m² | - |
| 1777749632 | 11.11° C | 31% | 1013.3 hPa | 0 mm | - | 434 W/m² | - |
| 1777749329 | 11.67° C | 30% | 1013.4 hPa | 0 mm | - | 80 W/m² | - |
| 1777749027 | 12.22° C | 29% | 1013.4 hPa | 0 mm | - | 565 W/m² | - |
| 1777748724 | 11.67° C | 30% | 1013.4 hPa | 0 mm | - | 504 W/m² | - |
| 1777746900 | 10° C | 32% | 1013.7 hPa | 0 mm | - | 217 W/m² | - |
| 1777746590 | 10.56° C | 31% | 1014 hPa | 0 mm | - | 122 W/m² | - |
| 1777746286 | 11.67° C | 29% | 1014 hPa | 0 mm | - | 116 W/m² | - |
| 1777745680 | 11.11° C | 30% | 1014.2 hPa | 0 mm | - | 84 W/m² | - |
| 1777745380 | 10.56° C | 31% | 1014.1 hPa | 0 mm | - | 113 W/m² | - |
| 1777745076 | 11.11° C | 31% | 1014.2 hPa | 0 mm | - | 127 W/m² | - |
| 1777744772 | 10° C | 33% | 1014.2 hPa | 0 mm | - | 130 W/m² | - |
| 1777744466 | 10° C | 33% | 1014.4 hPa | 0 mm | - | 165 W/m² | - |
| 1777743556 | 10.56° C | 32% | 1014.6 hPa | 0 mm | - | 585 W/m² | - |
| 1777742345 | 10° C | 33% | 1015 hPa | 0 mm | - | 693 W/m² | - |
| 1777742041 | 8.89° C | 34% | 1015 hPa | 0 mm | - | 142 W/m² | - |
| 1777741738 | 9.44° C | 32% | 1014.9 hPa | 0 mm | - | 450 W/m² | - |
* Rain latest hour (hover to see other rain measurements)
** Current wind speed in m/s (hover to see current wind gust speed)